Tracking 29932 objects as of 4-Dec-2024
HD Live streaming from Space Station
objects crossing your sky now

STARLINK-11100

Track STARLINK-11100 now!
10-day predictions
STARLINK-11100 is classified as:


NORAD ID: 59713
Int'l Code: 2024-088F
Perigee: 366.4 km
Apogee: 367.3 km
Inclination: 53.2 °
Period: 91.7 minutes
Semi major axis: 6737 km
RCS: Unknown
Launch date: May 10, 2024
Source: United States (US)
Launch site: AIR FORCE WESTERN TEST RANGE (AFWTR)
Your satellite tracking list
Your tracking list is empty




NASA's NSSDC Master Catalog

Two Line Element Set (TLE):
1 59713U 24088F   24338.54856552  .00002996  00000-0  29551-4 0  9999
2 59713  53.1585  79.6176 0000657 122.8326 237.2755 15.69726976 33849
Source of the keplerian elements: AFSPC